THOR AGENA D R/B, 815

Orbit data source: Space-Track

THOR AGENA D R/B, 815 is space debris in SSO originally from a launch on Thu, 18 Jun 1964 UTC launched from the Air Force Western Test Range (AFWTR). Debris objects in space refer to the collection of defunct objects orbiting the Earth. Examples of debris include non-operational satellites, rocket bodies, and fragments generated from explosions, collisions, or faulty payload assembly.

Loading next visibility...
Identifier
815, 1964-031C
Orbit
SSO
Last TLE update
2 days ago
Origin
Manufacturer
LMSC
Mission
Spacecraft
Bus & Motor
AGENA D, Unknown motor
Mass
600 kg wet, 600 kg dry
Launch date (UTC)
1964-06-18 (61 years ago)
Launch vehicle
Unknown
Launch site
Air Force Western Test Range (AFWTR)
Object type
Payload
Rocket body
Debris
Shape & HBR
Cyl + 1 Nozzle, 6.3 m
Radar Cross Section
8.306 m², Large (>1 m²)

Expand to show TLE details & history

TLE from 2 days ago
0 THOR AGENA D R/B
1   815U 64031C   25119.21017203  .00000309  00000-0  14569-3 0  9992
2   815  99.8151  13.6984 0012117  29.4269 330.7588 14.28281980162325
Epoch: 2025-04-29T05:02Z
Definitive object data (Epoch: 2025-04-29T05:02:38.863Z)
Latitude
-0.00004°
Longitude
80.62336°
Altitude
792.782 km
Speed
7.461 km/s
True Right ascension
00h 54m 47s
True Declination
0° 00' 00"
Sunlit
Object was in daylight at TLE epoch
Visualization TLE readout
Latitude
-39.99532°
Longitude
-105.74154°
Altitude
821.058 km
Speed
7.437 km/s
Apparent Right ascension
15h 03m 13s
Apparent Declination
-47° 59' 21"
Sunlit
Object is in full shadow
Visualization observer readout
Local Sidereal Time
06:01:22
Azimuth
119.333° SE
Elevation
-57.424°
Doppler factor
1
Orbital elements
Apogee altitude
803.374 km
Perigee altitude
785.992 km
Semi-major axis
7,172.82 km
Eccentricity
0.0012117
Inclination
99.8151°
RAAN
13.6984°
Arg. of periapsis
29.4269°
True anomaly
330.69088°
Mean anomaly
330.7588°
Eccentric anomaly
330.72485°
Mean motion
3.5728 °/min
BSTAR
0.00014569
Orbital period
100.76 mins
Loading maneuver chart data...
Loading SW <> Apogee altitude chart data...
Loading historical data...
Loading historical data...
Loading historical data...
Loading historical data...
Loading historical data...
Loading historical data...
Loading historical data...
Other satellites on launch #31 in the year 1964 (1964-06-18 UTC)

THOR AGENA D R/B Visibility forecast

Observer location: undefined°, undefined°

Span
Click to sort rows by Start time (UTC) header in descending order
Start Az.
Max El. time (UTC)
Max El. Az.
Max El.
End time (UTC)
End Az.
7 mins2025-05-01 04:43:23.658Z51.694° ENE2025-05-01 04:46:23.658Z87.908° E17.814°2025-05-01 04:50:23.658Z138.229° SSE
8 mins2025-05-01 06:23:23.658Z356.609° N2025-05-01 06:26:23.658Z297.31° NW37.935°2025-05-01 06:31:23.658Z216.038° SW
7 mins2025-05-01 16:02:23.658Z118.207° SE2025-05-01 16:05:23.658Z68.578° E28.251°2025-05-01 16:09:23.658Z8.31° NNE
7 mins2025-05-01 17:42:23.658Z218.162° SW2025-05-01 17:45:23.658Z272.117° WNW26.004°2025-05-01 17:49:23.658Z322.611° NNW
|